Time,TemperatureF,DewpointF,PressureIn,WindDirection,WindDirectionDegrees,WindSpeedMPH,WindSpeedGustMPH,Humidity,HourlyPrecipIn,Conditions,Clouds,dailyrainin,SoftwareType,DateUTC
2013-04-19 00:03:00,27.0,20.0,30.06,SSW,196,4.0,9.0,74,0.00,,,0.15,,2013-04-19 05:03:00,
2013-04-19 00:11:00,27.0,20.0,30.06,SSW,196,4.0,9.0,74,0.00,,,0.15,,2013-04-19 05:11:00,
2013-04-19 00:22:00,26.0,19.0,30.06,SSW,210,4.0,9.0,74,0.00,,,0.15,,2013-04-19 05:22:00,
2013-04-19 00:32:00,26.0,19.0,30.06,South,190,3.0,8.0,73,0.00,,,0.15,,2013-04-19 05:32:00,
2013-04-19 00:42:00,26.0,19.0,30.06,South,190,3.0,8.0,73,0.00,,,0.15,,2013-04-19 05:42:00,
2013-04-19 00:52:00,26.0,19.0,30.05,SSW,211,5.0,10.0,73,0.00,,,0.15,,2013-04-19 05:52:00,
2013-04-19 01:01:00,26.0,18.0,30.05,SSW,192,3.0,11.0,72,0.00,,,0.15,,2013-04-19 06:01:00,
2013-04-19 01:11:00,26.0,18.0,30.05,SSW,192,3.0,11.0,72,0.00,,,0.15,,2013-04-19 06:11:00,
2013-04-19 01:22:00,26.0,19.0,30.05,SW,218,3.0,10.0,73,0.00,,,0.15,,2013-04-19 06:22:00,
2013-04-19 01:32:00,27.0,20.0,30.05,SW,215,5.0,13.0,73,0.00,,,0.15,,2013-04-19 06:32:00,
2013-04-19 01:42:00,27.0,20.0,30.05,SW,215,5.0,13.0,73,0.00,,,0.15,,2013-04-19 06:42:00,
2013-04-19 01:53:00,27.0,20.0,30.04,SSW,213,3.0,7.0,73,0.00,,,0.15,,2013-04-19 06:53:00,
2013-04-19 02:02:00,27.0,20.0,30.04,SSW,204,4.0,9.0,73,0.00,,,0.15,,2013-04-19 07:02:00,
2013-04-19 02:12:00,27.0,20.0,30.04,SSW,204,4.0,9.0,73,0.00,,,0.15,,2013-04-19 07:12:00,
2013-04-19 02:21:00,27.0,20.0,30.03,SSW,194,3.0,9.0,73,0.00,,,0.15,,2013-04-19 07:21:00,
2013-04-19 02:32:00,27.0,20.0,30.03,SSW,205,4.0,7.0,73,0.00,,,0.15,,2013-04-19 07:32:00,
2013-04-19 02:42:00,27.0,20.0,30.03,SSW,205,4.0,7.0,73,0.00,,,0.15,,2013-04-19 07:42:00,
2013-04-19 02:52:00,26.0,19.0,30.03,South,184,3.0,9.0,74,0.00,,,0.15,,2013-04-19 07:52:00,
2013-04-19 03:02:00,26.0,19.0,30.03,South,184,3.0,9.0,74,0.00,,,0.15,,2013-04-19 08:02:00,
2013-04-19 03:12:00,26.0,19.0,30.03,South,184,3.0,9.0,74,0.00,,,0.15,,2013-04-19 08:12:00,
2013-04-19 03:21:00,25.0,18.0,30.02,SSW,198,2.0,7.0,75,0.00,,,0.15,,2013-04-19 08:21:00,
2013-04-19 03:32:00,25.0,18.0,30.02,SSW,198,2.0,7.0,75,0.00,,,0.15,,2013-04-19 08:32:00,
2013-04-19 03:42:00,25.0,18.0,30.02,SSW,198,2.0,7.0,75,0.00,,,0.15,,2013-04-19 08:42:00,
2013-04-19 03:52:00,25.0,18.0,30.02,SW,219,1.0,8.0,75,0.00,,,0.15,,2013-04-19 08:52:00,
2013-04-19 04:01:00,25.0,19.0,30.02,SSW,203,4.0,8.0,76,0.00,,,0.15,,2013-04-19 09:01:00,
2013-04-19 04:12:00,25.0,19.0,30.02,SSW,203,4.0,8.0,76,0.00,,,0.15,,2013-04-19 09:12:00,
2013-04-19 04:21:00,25.0,19.0,30.02,SSW,205,4.0,8.0,76,0.00,,,0.15,,2013-04-19 09:21:00,
2013-04-19 04:32:00,24.0,18.0,30.02,SSW,204,2.0,5.0,78,0.00,,,0.15,,2013-04-19 09:32:00,
2013-04-19 04:42:00,24.0,18.0,30.02,SSW,204,2.0,5.0,78,0.00,,,0.15,,2013-04-19 09:42:00,
2013-04-19 04:52:00,24.0,18.0,30.02,SSW,198,1.0,5.0,79,0.00,,,0.15,,2013-04-19 09:52:00,
2013-04-19 05:02:00,24.0,18.0,30.02,SSW,195,2.0,4.0,79,0.00,,,0.15,,2013-04-19 10:02:00,
2013-04-19 05:13:00,24.0,19.0,30.02,SSW,212,3.0,6.0,80,0.00,,,0.15,,2013-04-19 10:13:00,
2013-04-19 05:23:00,24.0,19.0,30.02,SSW,212,3.0,6.0,80,0.00,,,0.15,,2013-04-19 10:23:00,
2013-04-19 05:33:00,24.0,19.0,30.02,South,186,2.0,5.0,81,0.00,,,0.15,,2013-04-19 10:33:00,
2013-04-19 05:42:00,24.0,19.0,30.02,South,186,2.0,5.0,81,0.00,,,0.15,,2013-04-19 10:42:00,
2013-04-19 05:52:00,24.0,19.0,30.01,SSW,198,0.0,3.0,80,0.00,,,0.15,,2013-04-19 10:52:00,
2013-04-19 06:02:00,24.0,19.0,30.01,SSW,200,1.0,5.0,80,0.00,,,0.15,,2013-04-19 11:02:00,
2013-04-19 06:11:00,24.0,19.0,30.01,SSW,200,1.0,5.0,80,0.00,,,0.15,,2013-04-19 11:11:00,
2013-04-19 06:22:00,24.0,19.0,30.01,SSW,196,1.0,4.0,80,0.00,,,0.15,,2013-04-19 11:22:00,
2013-04-19 06:32:00,24.0,19.0,30.00,SSW,196,0.0,0.0,80,0.00,,,0.15,,2013-04-19 11:32:00,
2013-04-19 06:42:00,24.0,19.0,30.00,SSW,196,0.0,0.0,80,0.00,,,0.15,,2013-04-19 11:42:00,
2013-04-19 06:52:00,23.0,18.0,30.00,SW,231,1.0,2.0,80,0.00,,,0.15,,2013-04-19 11:52:00,
2013-04-19 07:03:00,23.0,18.0,30.00,WSW,250,0.0,1.0,82,0.00,,,0.15,,2013-04-19 12:03:00,
2013-04-19 07:12:00,23.0,18.0,30.00,WSW,250,0.0,1.0,82,0.00,,,0.15,,2013-04-19 12:12:00,
2013-04-19 07:22:00,23.0,19.0,30.00,WSW,250,0.0,0.0,83,0.00,,,0.15,,2013-04-19 12:22:00,
2013-04-19 07:32:00,24.0,20.0,29.99,WSW,250,0.0,1.0,83,0.00,,,0.15,,2013-04-19 12:32:00,
2013-04-19 07:42:00,24.0,20.0,29.99,WSW,250,0.0,1.0,83,0.00,,,0.15,,2013-04-19 12:42:00,
2013-04-19 07:52:00,25.0,20.0,29.99,SW,231,1.0,3.0,82,0.00,,,0.15,,2013-04-19 12:52:00,
2013-04-19 08:01:00,26.0,21.0,30.00,SW,222,3.0,6.0,80,0.00,,,0.15,,2013-04-19 13:01:00,
2013-04-19 08:11:00,26.0,21.0,30.00,SW,222,3.0,6.0,80,0.00,,,0.15,,2013-04-19 13:11:00,
2013-04-19 08:21:00,27.0,21.0,30.00,SSW,212,2.0,7.0,78,0.00,,,0.15,,2013-04-19 13:21:00,
2013-04-19 08:32:00,28.0,22.0,30.00,SSW,205,4.0,6.0,78,0.00,,,0.15,,2013-04-19 13:32:00,
2013-04-19 08:42:00,28.0,22.0,30.00,SSW,205,4.0,6.0,78,0.00,,,0.15,,2013-04-19 13:42:00,
2013-04-19 08:52:00,29.0,22.0,30.00,SW,215,4.0,7.0,76,0.00,,,0.15,,2013-04-19 13:52:00,
2013-04-19 09:02:00,30.0,23.0,30.00,SW,219,4.0,8.0,74,0.00,,,0.15,,2013-04-19 14:02:00,
2013-04-19 09:11:00,30.0,23.0,30.00,SW,219,4.0,8.0,74,0.00,,,0.15,,2013-04-19 14:11:00,
2013-04-19 09:22:00,32.0,24.0,30.00,SW,216,3.0,7.0,73,0.00,,,0.15,,2013-04-19 14:22:00,
2013-04-19 09:32:00,33.0,24.0,30.00,SW,219,7.0,15.0,68,0.00,,,0.15,,2013-04-19 14:32:00,
2013-04-19 09:42:00,33.0,24.0,30.00,SW,219,7.0,15.0,68,0.00,,,0.15,,2013-04-19 14:42:00,
2013-04-19 09:52:00,34.0,24.0,29.99,SSW,207,4.0,11.0,66,0.00,,,0.15,,2013-04-19 14:52:00,
2013-04-19 10:01:00,35.0,24.0,30.00,South,185,4.0,12.0,65,0.00,,,0.15,,2013-04-19 15:01:00,
2013-04-19 10:12:00,35.0,24.0,30.00,South,185,4.0,12.0,65,0.00,,,0.15,,2013-04-19 15:12:00,
2013-04-19 10:21:00,37.0,26.0,30.00,SSW,202,5.0,9.0,64,0.00,,,0.15,,2013-04-19 15:21:00,
2013-04-19 10:33:00,38.0,27.0,30.00,SSW,213,5.0,10.0,63,0.00,,,0.15,,2013-04-19 15:33:00,
2013-04-19 10:43:00,38.0,27.0,30.00,SSW,213,5.0,10.0,63,0.00,,,0.15,,2013-04-19 15:43:00,
2013-04-19 10:52:00,40.0,28.0,30.00,SSW,200,4.0,12.0,63,0.00,,,0.15,,2013-04-19 15:52:00,
2013-04-19 11:03:00,43.0,28.0,30.00,SSE,151,6.0,14.0,56,0.00,,,0.15,,2013-04-19 16:03:00,
2013-04-19 11:13:00,43.0,28.0,30.00,SSE,151,6.0,14.0,56,0.00,,,0.15,,2013-04-19 16:13:00,
2013-04-19 11:23:00,43.0,29.0,30.00,South,178,4.0,10.0,57,0.00,,,0.15,,2013-04-19 16:23:00,
2013-04-19 11:32:00,44.0,29.0,30.00,SSW,212,5.0,13.0,56,0.00,,,0.15,,2013-04-19 16:32:00,
2013-04-19 11:42:00,44.0,29.0,30.00,SSW,212,5.0,13.0,56,0.00,,,0.15,,2013-04-19 16:42:00,
2013-04-19 11:52:00,45.0,29.0,29.99,SSW,204,6.0,11.0,54,0.00,,,0.15,,2013-04-19 16:52:00,
2013-04-19 12:02:00,45.0,27.0,30.00,SW,236,8.0,17.0,48,0.00,,,0.15,,2013-04-19 17:02:00,
2013-04-19 12:12:00,45.0,27.0,30.00,SW,236,8.0,17.0,48,0.00,,,0.15,,2013-04-19 17:12:00,
2013-04-19 12:21:00,46.0,27.0,30.01,West,262,4.0,14.0,48,0.00,,,0.15,,2013-04-19 17:21:00,
2013-04-19 12:33:00,47.0,28.0,30.01,SW,225,6.0,14.0,47,0.00,,,0.15,,2013-04-19 17:33:00,
2013-04-19 12:42:00,47.0,28.0,30.01,SW,225,6.0,14.0,47,0.00,,,0.15,,2013-04-19 17:42:00,
2013-04-19 12:52:00,47.0,29.0,30.01,WSW,258,4.0,12.0,50,0.00,,,0.15,,2013-04-19 17:52:00,
2013-04-19 13:02:00,47.0,28.0,30.00,South,190,5.0,12.0,48,0.00,,,0.15,,2013-04-19 18:02:00,
2013-04-19 13:13:00,47.0,28.0,30.00,South,190,5.0,12.0,48,0.00,,,0.15,,2013-04-19 18:13:00,
2013-04-19 13:23:00,47.0,27.0,30.00,South,186,4.0,11.0,46,0.00,,,0.15,,2013-04-19 18:23:00,
2013-04-19 13:33:00,48.0,29.0,30.00,SSW,196,5.0,11.0,47,0.00,,,0.14,,2013-04-19 18:33:00,
2013-04-19 13:43:00,48.0,29.0,30.00,SSW,196,5.0,11.0,47,0.00,,,0.14,,2013-04-19 18:43:00,
2013-04-19 13:52:00,46.0,27.0,30.00,South,172,4.0,12.0,47,0.00,,,0.14,,2013-04-19 18:52:00,
2013-04-19 14:02:00,46.0,27.0,30.00,South,188,3.0,9.0,47,0.00,,,0.14,,2013-04-19 19:02:00,
2013-04-19 14:11:00,46.0,27.0,30.00,South,188,3.0,9.0,47,0.00,,,0.14,,2013-04-19 19:11:00,
2013-04-19 14:21:00,48.0,28.0,30.00,SW,227,4.0,12.0,45,0.00,,,0.14,,2013-04-19 19:21:00,
2013-04-19 14:32:00,48.0,29.0,30.00,SSW,198,3.0,8.0,47,0.00,,,0.10,,2013-04-19 19:32:00,
2013-04-19 14:42:00,48.0,29.0,30.00,SSW,198,3.0,8.0,47,0.00,,,0.10,,2013-04-19 19:42:00,
2013-04-19 14:52:00,48.0,27.0,30.00,WSW,247,4.0,10.0,44,0.00,,,0.10,,2013-04-19 19:52:00,
2013-04-19 15:02:00,47.0,27.0,30.00,SSW,198,3.0,14.0,46,0.00,,,0.10,,2013-04-19 20:02:00,
2013-04-19 15:11:00,47.0,27.0,30.00,SSW,198,3.0,14.0,46,0.00,,,0.10,,2013-04-19 20:11:00,
2013-04-19 15:22:00,48.0,29.0,30.00,SSW,209,3.0,9.0,47,0.00,,,0.10,,2013-04-19 20:22:00,
2013-04-19 15:32:00,49.0,28.0,30.00,SSE,161,3.0,11.0,44,0.00,,,0.02,,2013-04-19 20:32:00,
2013-04-19 15:42:00,49.0,28.0,30.00,SSE,161,3.0,11.0,44,0.00,,,0.02,,2013-04-19 20:42:00,
2013-04-19 15:51:00,49.0,29.0,30.00,SW,231,4.0,15.0,45,0.00,,,0.02,,2013-04-19 20:51:00,
2013-04-19 16:01:00,48.0,28.0,29.99,WSW,239,3.0,10.0,45,0.00,,,0.02,,2013-04-19 21:01:00,
2013-04-19 16:11:00,48.0,29.0,29.99,South,190,2.0,6.0,48,0.00,,,0.02,,2013-04-19 21:11:00,
2013-04-19 16:21:00,48.0,29.0,29.99,South,190,2.0,6.0,48,0.00,,,0.02,,2013-04-19 21:21:00,
2013-04-19 16:32:00,48.0,29.0,29.99,WSW,252,3.0,7.0,47,0.00,,,0.01,,2013-04-19 21:32:00,
2013-04-19 16:42:00,48.0,29.0,29.99,WSW,252,3.0,7.0,47,0.00,,,0.01,,2013-04-19 21:42:00,
2013-04-19 16:52:00,50.0,29.0,29.99,SW,220,3.0,8.0,45,0.00,,,0.01,,2013-04-19 21:52:00,
2013-04-19 17:02:00,50.0,30.0,29.98,SW,229,3.0,7.0,46,0.00,,,0.01,,2013-04-19 22:02:00,
2013-04-19 17:12:00,50.0,30.0,29.98,SW,229,3.0,7.0,46,0.00,,,0.01,,2013-04-19 22:12:00,
2013-04-19 17:22:00,50.0,29.0,29.99,NW,307,4.0,10.0,45,0.00,,,0.01,,2013-04-19 22:22:00,
2013-04-19 17:33:00,49.0,30.0,29.99,South,187,1.0,7.0,47,0.00,,,0.00,,2013-04-19 22:33:00,
2013-04-19 17:42:00,49.0,30.0,29.99,South,187,1.0,7.0,47,0.00,,,0.00,,2013-04-19 22:42:00,
2013-04-19 17:52:00,50.0,30.0,29.98,SSW,196,2.0,9.0,46,0.00,,,0.00,,2013-04-19 22:52:00,
2013-04-19 18:03:00,50.0,29.0,29.98,North,350,2.0,5.0,45,0.00,,,0.00,,2013-04-19 23:03:00,
2013-04-19 18:11:00,50.0,29.0,29.98,North,350,2.0,5.0,45,0.00,,,0.00,,2013-04-19 23:11:00,
2013-04-19 18:22:00,50.0,30.0,29.98,SW,218,3.0,8.0,46,0.00,,,0.00,,2013-04-19 23:22:00,
2013-04-19 18:32:00,49.0,30.0,29.98,SSW,200,2.0,6.0,47,0.00,,,0.00,,2013-04-19 23:32:00,
2013-04-19 18:42:00,49.0,30.0,29.98,SSW,200,2.0,6.0,47,0.00,,,0.00,,2013-04-19 23:42:00,
2013-04-19 18:52:00,49.0,29.0,29.98,NE,47,1.0,7.0,46,0.00,,,0.00,,2013-04-19 23:52:00,
2013-04-19 19:02:00,48.0,29.0,29.98,SSW,207,1.0,9.0,47,0.00,,,0.00,,2013-04-20 00:02:00,
2013-04-19 19:12:00,48.0,29.0,29.98,SSW,207,1.0,9.0,47,0.00,,,0.00,,2013-04-20 00:12:00,
2013-04-19 19:21:00,49.0,30.0,29.98,WSW,237,1.0,6.0,47,0.00,,,0.00,,2013-04-20 00:21:00,
2013-04-19 19:32:00,49.0,30.0,29.99,North,5,0.0,5.0,47,0.00,,,0.00,,2013-04-20 00:32:00,
2013-04-19 19:42:00,49.0,30.0,29.99,North,5,0.0,5.0,47,0.00,,,0.00,,2013-04-20 00:42:00,
2013-04-19 19:51:00,48.0,29.0,29.99,NW,311,0.0,6.0,48,0.00,,,0.00,,2013-04-20 00:51:00,
2013-04-19 20:01:00,47.0,29.0,29.99,SSW,196,0.0,3.0,49,0.00,,,0.00,,2013-04-20 01:01:00,
2013-04-19 20:11:00,47.0,29.0,29.99,SSW,196,0.0,3.0,49,0.00,,,0.00,,2013-04-20 01:11:00,
2013-04-19 20:21:00,46.0,28.0,29.99,NE,53,0.0,3.0,49,0.00,,,0.00,,2013-04-20 01:21:00,
2013-04-19 20:32:00,45.0,29.0,29.99,North,349,0.0,4.0,53,0.00,,,0.00,,2013-04-20 01:32:00,
2013-04-19 20:42:00,45.0,29.0,29.99,North,349,0.0,4.0,53,0.00,,,0.00,,2013-04-20 01:42:00,
2013-04-19 20:52:00,43.0,28.0,29.99,NW,323,2.0,4.0,55,0.00,,,0.00,,2013-04-20 01:52:00,
2013-04-19 21:01:00,42.0,28.0,29.99,NNW,329,2.0,5.0,58,0.00,,,0.00,,2013-04-20 02:01:00,
2013-04-19 21:11:00,42.0,28.0,29.99,NNW,329,2.0,5.0,58,0.00,,,0.00,,2013-04-20 02:11:00,
2013-04-19 21:21:00,40.0,27.0,29.99,NNW,329,0.0,3.0,60,0.00,,,0.00,,2013-04-20 02:21:00,
2013-04-19 21:32:00,38.0,27.0,30.00,NNW,329,0.0,3.0,65,0.00,,,0.00,,2013-04-20 02:32:00,
2013-04-19 21:42:00,38.0,27.0,30.00,NNW,329,0.0,3.0,65,0.00,,,0.00,,2013-04-20 02:42:00,
2013-04-19 21:52:00,37.0,27.0,30.01,NNW,329,0.0,1.0,67,0.00,,,0.00,,2013-04-20 02:52:00,
2013-04-19 22:01:00,36.0,27.0,30.01,NNW,329,0.0,2.0,69,0.00,,,0.00,,2013-04-20 03:01:00,
2013-04-19 22:11:00,36.0,27.0,30.01,NNW,329,0.0,2.0,69,0.00,,,0.00,,2013-04-20 03:11:00,
2013-04-19 22:21:00,35.0,27.0,30.02,NNW,329,0.0,2.0,71,0.00,,,0.00,,2013-04-20 03:21:00,
2013-04-19 22:33:00,35.0,27.0,30.02,NNW,329,0.0,2.0,72,0.00,,,0.00,,2013-04-20 03:33:00,
2013-04-19 22:43:00,35.0,27.0,30.02,NNW,329,0.0,2.0,72,0.00,,,0.00,,2013-04-20 03:43:00,
2013-04-19 22:52:00,34.0,26.0,30.02,NNW,329,0.0,1.0,73,0.00,,,0.00,,2013-04-20 03:52:00,
2013-04-19 23:03:00,34.0,27.0,30.02,NNW,329,0.0,2.0,75,0.00,,,0.00,,2013-04-20 04:03:00,
2013-04-19 23:12:00,34.0,27.0,30.02,NNW,329,0.0,2.0,75,0.00,,,0.00,,2013-04-20 04:12:00,
2013-04-19 23:23:00,34.0,27.0,30.02,NNW,344,0.0,2.0,75,0.00,,,0.00,,2013-04-20 04:23:00,
2013-04-19 23:32:00,34.0,27.0,30.01,NW,323,0.0,5.0,74,0.00,,,0.00,,2013-04-20 04:32:00,
2013-04-19 23:42:00,34.0,27.0,30.01,NW,323,0.0,5.0,74,0.00,,,0.00,,2013-04-20 04:42:00,
2013-04-19 23:52:00,33.0,26.0,30.01,NNW,346,0.0,0.0,75,0.00,,,0.00,,2013-04-20 04:52:00,